STARLINK-11739 [DTC]

Last updated on Thu Jul 03 2025 00:02:06 GMT+0000 (Coordinated Universal Time)

1 64374U 25127E 25183.58335648 -.00100293 00000+0 -57861-3 0 9998 2 64374 43.0005 154.9536 0001565 269.5618 151.2876 15.77918725 4090
UTC large
Height (km)
Speed (km/s)
/
Latitude / Longitude
Inclination (degrees)
Orbital Period (minutes)
Azimuth
Elevation
Range (km)
Doppler Factor

Next 0 passes for location: London (51.5072 / 0.1276)

Sorry there are no passes over London.